Tracking 30970 objects as of 3-Jul-2025
HD Live streaming from Space Station
objects crossing your sky now

STARLINK-6028

Track STARLINK-6028 now!
10-day predictions
STARLINK-6028 is classified as:


NORAD ID: 56818
Int'l Code: 2023-078BD
Perigee: 576.8 km
Apogee: 581.6 km
Inclination: 70.0 °
Period: 96.1 minutes
Semi major axis: 6950 km
RCS: Unknown
Launch date: May 31, 2023
Source: United States (US)
Launch site: AIR FORCE WESTERN TEST RANGE (AFWTR)
Your satellite tracking list
Your tracking list is empty




NASA's NSSDC Master Catalog

Two Line Element Set (TLE):
1 56818U 23078BD  25183.60038873 -.00001218  00000-0 -94319-4 0  9996
2 56818  69.9989 254.8417 0003438 262.6664  97.4104 14.98335361115916
Source of the keplerian elements: AFSPC